Theta_e
285 284 284 283 283 283 282 282 282 282 281 281 281 281 281 282 282 281 281 281 281 280 280 280 280 279 280 279 278 278 278 278 278 278 278 278 278 278 278 277 276 276
284 284 284 283 283 283 282 282 282 282 281 281 281 281 281 281 281 281 281 281 280 280 280 280 279 280 279 278 278 278 278 278 278 279 278 277 278 278 277 277 277 277
283 283 283 283 283 282 282 282 282 281 281 281 281 281 281 281 281 280 280 280 280 280 280 279 279 279 279 279 278 278 278 278 278 278 278 278 278 277 277 277 277 276
283 283 283 283 283 283 283 282 281 280 280 280 280 281 281 281 281 280 279 280 279 279 279 279 279 279 279 279 278 278 278 278 278 278 277 277 277 277 277 277 277 276
283 283 283 283 283 283 282 281 281 280 280 280 280 280 279 279 279 279 279 279 279 279 279 279 279 278 278 278 278 278 278 278 278 278 277 277 277 277 277 277 276 276
281 281 281 281 281 281 281 281 281 281 280 279 280 280 279 279 279 279 279 279 279 279 279 278 278 278 278 278 278 278 278 277 278 277 277 277 277 277 277 277 276 275
280 280 280 280 280 280 280 280 280 280 280 281 280 279 279 279 279 279 279 279 279 278 278 278 278 278 278 278 278 278 278 278 277 277 277 277 277 276 276 276 276 275
277 277 278 278 279 279 279 279 279 280 280 279 279 280 280 279 279 279 279 279 278 278 278 278 278 278 278 278 277 277 277 278 277 277 276 276 276 276 275 275 275 275
278 278 278 277 277 277 277 277 278 278 278 278 278 279 278 279 279 279 279 278 278 278 278 278 278 278 278 278 277 277 277 277 277 277 276 275 275 275 275 275 274 274
277 277 277 277 277 277 277 277 277 277 277 276 276 277 277 277 277 278 278 278 278 278 278 278 278 278 278 278 278 277 277 277 277 276 276 276 276 275 275 274 274 273
276 276 276 276 276 276 276 276 276 276 277 276 276 276 276 276 276 276 276 276 277 277 277 277 277 278 278 277 277 277 277 277 277 276 276 276 276 275 275 274 274 273
275 275 275 275 275 275 275 275 275 275 275 276 276 275 275 275 275 275 275 274 275 276 276 276 277 277 277 277 277 277 276 276 276 276 276 275 275 275 275 274 274 274
274 274 274 274 274 274 274 274 274 274 274 274 274 274 274 274 274 274 274 273 273 273 274 275 275 275 276 276 276 276 275 275 275 275 275 275 275 274 274 274 274 274
273 273 273 273 273 273 273 273 273 273 273 273 273 272 272 272 272 272 273 272 273 272 272 272 272 272 273 274 274 274 274 274 274 274 274 274 274 274 274 274 274 273
272 273 273 273 273 272 272 272 272 272 272 272 271 271 272 271 271 271 271 271 271 271 271 271 270 270 270 270 271 271 271 272 273 273 273 273 273 273 273 273 273 273
272 272 272 272 272 271 271 271 271 271 271 271 271 270 270 271 270 270 270 269 270 270 269 269 270 270 273 276 276 272 270 271 272 272 272 273 273 273 273 273 273 273
270 270 271 271 271 271 271 271 271 271 270 270 270 270 270 270 269 269 268 268 268 267 268 268 268 270 275 278 280 281 275 271 272 272 272 272 273 273 273 273 273 273
268 268 268 268 269 270 270 270 270 270 270 270 269 269 270 269 269 268 267 267 267 266 265 267 267 272 276 277 278 279 279 275 272 272 272 272 273 273 273 273 273 273
266 266 266 266 267 268 269 269 269 269 269 269 269 269 269 269 269 268 268 267 267 266 267 267 266 271 275 277 278 278 279 278 273 273 272 273 273 273 274 274 274 274
265 265 265 265 266 266 267 267 267 268 268 268 268 269 268 268 268 268 268 267 267 266 266 266 266 269 274 277 277 278 278 278 271 272 272 273 273 274 275 275 275 274
265 264 264 264 265 265 265 265 265 266 267 268 269 269 268 267 267 266 267 267 267 266 265 266 267 271 275 276 277 277 278 277 271 270 271 271 273 273 274 275 275 275
264 263 263 263 264 264 264 263 264 264 265 267 268 270 270 268 267 267 267 267 267 266 265 266 267 272 275 276 276 276 277 273 269 268 269 269 270 271 272 274 274 274
263 263 262 262 262 262 262 263 263 264 265 267 268 269 270 270 269 268 267 267 267 267 265 266 266 268 273 274 275 276 275 270 268 268 268 268 269 269 270 271 272 273
262 262 261 261 261 261 261 262 263 264 265 267 266 266 267 268 268 268 268 268 268 268 267 266 266 267 270 273 275 276 274 271 269 268 267 268 268 268 268 269 269 273
262 261 261 260 260 260 261 261 262 263 264 265 265 265 266 267 267 268 269 269 269 268 268 268 267 267 270 273 274 275 273 271 271 269 268 268 268 268 268 267 267 271
261 261 260 260 260 260 260 260 262 262 262 263 264 265 266 268 268 268 267 268 269 268 267 267 267 266 267 272 273 274 274 272 271 270 269 270 270 270 269 267 268 269
Wind_Speed
7 7 8 8 8 7 8 8 7 8 8 7 8 8 9 10 8 8 9 8 7 8 8 8 7 7 7 6 6 6 7 8 7 6 8 8 8 8 9 8 8 8
8 8 7 7 6 5 5 7 8 9 9 8 8 8 8 7 8 8 8 9 8 9 8 8 8 8 8 7 7 8 7 7 9 6 8 9 9 9 10 10 10 8
6 6 7 8 9 9 9 8 8 8 8 9 8 7 7 7 7 7 8 8 9 9 9 9 9 8 9 9 8 8 8 9 10 8 9 10 9 9 9 9 8 9
6 8 8 8 8 8 8 7 6 6 6 5 7 8 8 7 7 8 8 9 9 9 9 8 9 9 9 9 9 8 9 10 10 8 9 7 8 9 9 8 9 8
8 7 6 6 6 6 5 6 6 7 7 9 7 6 6 6 7 8 8 9 9 9 8 10 9 9 9 9 9 9 9 9 9 8 9 10 9 9 9 8 9 10
3 3 3 4 4 5 5 6 7 7 7 6 8 8 7 8 8 9 9 9 9 10 10 9 10 10 10 10 9 10 9 9 9 10 11 11 10 9 8 8 9 10
3 2 3 3 4 4 5 6 5 5 6 8 5 6 7 8 8 9 10 10 10 10 11 10 10 11 10 10 10 10 10 10 10 10 11 10 9 10 8 8 10 11
6 4 3 2 2 3 3 4 4 4 5 4 6 8 7 9 9 9 9 10 10 10 10 11 11 11 10 9 10 11 11 9 10 11 11 11 10 11 10 9 10 11
9 9 9 8 8 6 5 5 4 4 3 3 4 5 4 5 8 8 9 9 9 10 10 10 11 11 10 10 11 11 12 11 11 11 12 12 12 13 12 11 10 10
11 10 11 10 10 8 9 8 7 7 6 4 3 3 4 4 4 5 5 7 8 8 9 10 10 10 10 10 12 12 12 13 12 12 12 12 12 12 11 10 12 11
11 10 11 11 10 8 9 9 9 8 7 8 7 7 5 4 3 3 4 4 7 7 9 9 10 10 11 11 10 10 12 12 12 11 12 12 12 12 12 11 12 12
11 11 11 10 9 9 9 8 8 8 7 6 6 7 6 6 6 5 3 4 4 5 6 6 7 8 9 10 11 10 10 11 10 10 11 11 11 11 11 10 12 12
11 10 10 9 9 8 8 8 8 8 8 8 6 5 6 7 6 6 5 4 4 4 4 5 6 5 6 7 8 8 9 9 10 10 10 10 10 11 10 10 11 11
9 9 9 9 8 8 8 9 9 9 8 7 7 8 8 7 7 7 5 4 4 4 4 3 3 4 5 5 6 6 6 8 8 9 9 9 9 9 9 10 11 11
9 9 9 9 9 9 9 9 9 8 8 8 7 7 7 6 6 6 7 7 6 5 5 5 4 3 3 3 4 5 5 6 7 8 9 9 9 9 9 10 10 10
11 10 11 11 11 11 10 9 9 9 9 9 9 8 8 7 7 7 6 6 7 7 5 5 5 4 6 8 6 5 5 5 6 7 7 8 9 9 9 9 10 9
11 11 10 11 10 10 10 9 9 8 8 9 9 8 8 7 6 6 6 5 5 5 6 5 4 4 9 11 12 11 4 5 6 7 7 8 9 9 10 10 9 10
10 11 11 11 11 11 10 9 8 8 8 8 9 10 9 8 8 6 5 4 4 4 4 5 4 6 11 12 12 12 10 6 5 6 6 7 8 9 9 9 9 9
11 12 12 12 13 13 12 11 10 9 9 9 10 8 8 9 9 8 8 6 5 6 6 5 5 7 12 13 12 12 13 10 5 5 6 7 7 8 9 9 9 9
10 10 11 11 10 10 10 11 11 10 9 7 7 8 8 9 9 9 8 7 7 6 6 6 6 7 12 14 14 14 13 11 5 6 6 6 7 8 8 9 9 9
10 9 9 9 9 9 9 9 9 9 10 9 7 7 6 7 8 8 9 8 8 6 6 7 7 10 13 15 15 15 15 12 5 5 6 6 6 6 8 9 9 10
9 9 9 9 9 10 10 11 10 10 10 10 10 8 6 5 6 6 7 8 8 8 7 8 7 10 14 14 15 16 17 7 5 5 6 6 7 7 7 8 8 9
10 10 11 11 12 12 13 13 13 13 11 9 10 10 10 9 7 6 6 8 10 9 8 8 8 9 12 14 15 18 13 7 6 6 6 7 7 6 7 7 7 7
8 9 10 10 10 11 12 13 12 10 10 10 10 11 10 10 10 10 9 7 8 10 9 9 9 7 9 13 17 19 15 9 7 7 8 8 8 6 6 6 6 10
6 6 7 8 9 10 10 11 11 10 10 9 9 9 10 9 8 8 8 8 7 9 11 11 9 7 9 14 20 19 14 8 7 6 8 8 7 8 6 5 5 5
6 7 7 8 9 9 9 9 9 9 9 9 9 9 9 9 7 7 9 10 9 8 9 9 8 6 6 14 18 18 17 10 7 7 8 9 8 7 7 4 4 5
Wind_Direction
187 181 190 196 201 199 192 193 198 200 202 199 200 206 205 214 209 202 206 206 206 207 206 206 201 200 199 196 197 198 202 207 210 203 206 206 216 212 217 216 216 214
194 189 191 192 199 201 201 197 199 199 202 201 206 206 212 208 213 205 204 204 205 209 208 207 204 204 201 196 196 199 205 205 213 201 208 207 214 212 219 216 218 219
192 189 188 191 198 203 203 200 198 202 204 208 208 207 210 207 210 205 207 205 205 211 210 208 206 206 205 204 199 203 205 207 214 208 209 212 211 212 218 216 219 212
199 198 197 202 202 205 204 194 198 205 211 213 211 211 207 207 205 206 208 207 209 212 213 209 209 209 207 207 204 209 210 213 215 209 216 218 216 214 219 212 220 219
201 202 205 208 211 210 196 192 201 205 207 215 218 213 209 208 207 209 208 210 210 215 212 213 213 213 208 210 206 212 211 216 214 209 214 219 218 212 220 210 218 221
243 226 225 225 220 206 200 203 210 207 212 216 220 212 209 209 211 212 210 211 211 213 214 213 213 216 210 212 209 215 212 215 215 210 216 219 220 215 216 212 218 223
306 309 261 246 234 213 213 221 222 215 213 219 217 219 211 212 212 215 215 215 214 213 214 213 213 215 212 212 213 216 216 217 216 212 218 223 219 222 215 215 219 223
5 360 346 2 325 320 294 281 270 248 240 225 210 224 208 214 215 216 217 217 216 218 217 219 218 217 214 211 215 218 220 216 217 214 218 222 217 224 215 216 217 223
35 33 32 33 33 15 5 344 324 312 317 283 265 268 259 233 227 222 220 217 218 220 220 222 220 219 217 213 217 217 219 218 216 214 216 218 218 221 217 214 218 221
31 26 32 31 35 26 28 20 15 14 0 356 316 292 278 266 270 266 246 228 226 226 224 223 222 221 220 217 218 217 220 221 218 217 218 219 220 222 218 212 216 219
29 26 29 27 27 22 21 15 14 13 14 16 11 11 357 337 311 271 259 262 249 237 229 225 223 221 221 222 221 220 221 223 221 220 220 221 221 221 217 213 216 217
26 25 23 23 20 20 16 12 10 12 9 14 12 7 7 15 11 358 317 273 255 257 258 256 244 231 225 224 223 221 223 224 224 223 224 223 225 223 220 216 217 219
24 21 17 17 16 13 11 12 12 7 10 10 2 6 11 4 4 359 3 349 314 291 271 259 259 254 250 243 236 229 225 225 226 227 227 227 226 225 222 221 221 221
19 15 15 12 10 10 10 9 7 6 5 360 3 10 6 3 355 353 343 9 11 3 340 317 287 274 261 257 252 245 236 232 230 228 231 230 230 227 224 223 223 221
12 12 9 7 6 6 9 7 4 0 358 358 2 0 360 353 350 354 355 357 1 11 1 1 7 337 295 271 265 263 245 247 241 237 235 234 234 232 228 225 226 224
10 8 5 1 3 1 358 359 359 358 357 357 356 353 350 350 351 351 359 357 352 351 356 358 353 346 336 320 281 242 247 243 245 244 241 240 241 241 238 231 227 225
9 4 360 0 355 353 350 351 353 352 353 352 350 349 346 345 342 344 347 346 347 343 342 344 338 332 326 328 325 315 282 239 241 245 239 240 240 239 242 235 232 228
6 359 358 355 352 350 344 341 341 345 348 347 345 344 340 337 337 334 327 333 334 336 333 325 324 316 326 326 321 311 304 284 248 243 246 239 238 238 239 239 235 231
2 358 354 351 349 345 342 339 337 338 339 343 338 332 331 334 328 330 326 327 336 335 329 324 321 310 323 323 320 316 309 302 280 257 249 247 243 241 239 238 235 232
359 352 350 344 340 337 338 337 335 332 327 321 319 326 327 324 324 324 319 319 320 320 315 313 310 305 317 321 325 322 317 310 290 285 275 261 254 245 242 241 236 232
352 344 342 337 334 332 332 330 328 325 325 319 314 309 310 310 314 314 308 306 306 307 310 307 300 302 312 318 322 322 319 318 307 305 291 283 273 259 247 243 237 233
349 341 338 335 334 334 332 330 328 326 323 320 315 308 299 296 297 296 303 308 305 305 307 303 298 300 305 312 317 319 318 318 312 299 293 284 280 272 262 251 244 235
350 344 341 339 338 337 334 332 331 328 324 320 317 319 318 313 305 307 310 311 306 301 298 293 295 294 299 307 314 316 317 309 304 303 291 288 277 274 263 258 250 236
348 344 338 336 333 330 327 324 322 319 316 321 320 315 316 317 317 309 303 295 295 296 289 288 288 286 294 308 311 310 309 306 302 298 292 288 288 277 266 258 254 245
338 337 331 326 323 317 317 314 312 311 311 309 305 302 297 292 291 293 298 297 288 285 286 285 277 276 293 303 302 302 303 297 295 292 293 292 287 284 268 251 255 254
336 334 327 322 316 312 307 303 302 302 301 302 300 296 293 291 289 306 309 303 297 285 280 273 269 272 280 288 297 299 301 303 301 298 291 290 284 275 280 256 241 246